Flag for Russia Weather past 2 weeks in Krasnoyarsk, Russia

28 °F

Low level haze.

Feels Like: 15 °F
Forecast: 22 / 30 °F
Wind: 22 mph from Southwest

Location: Abakan

Current Time: Nov 30, 2015 at 9:52:56 AM

Latest Report: Nov 30, 2015 at 9:30 AM

Visibility: 6 mi

Pressure: 29.95 "Hg

Humidity: 74%

Dew point: 21 °F

Location of KrasnoyarskLocation

Historic Weather in Krasnoyarsk — Graph


Krasnoyarsk temperature yesterday

Maximum temperature yesterday: 32 °F (at 9:00 PM)
Minimum temperature yesterday: 12 °F (at 12:00 AM)
Average temperature yesterday: 21 °F

Past Weeks' High & Low Weather Summary

High37 °F (Nov 25, 5:00 PM)100% (Nov 27, 11:00 PM)30.77 "Hg (Nov 27, 11:00 PM)
Low-22 °F (Nov 20, 6:00 AM)59% (Nov 29, 9:30 PM)29.56 "Hg (Nov 29, 3:00 PM)
Average4 °F79%30.37 "Hg
* Reported Nov 15 10:30 AM — Nov 30 8:30 AM, Krasnoyarsk, Weather by CustomWeather, © 2015

Note: Actual official high and low records may vary slightly from our data, if they occured in-between our weather recording intervals... More about our weather records


Krasnoyarsk weather history for previous 24 hours

Time TempWeatherWind HumidityBarometerVisibility
8:30 AM
Mon, Nov 30
28 °FClear.24 mph74%29.92 "Hg6 mi
7:30 AM27 °FClear.20 mph74%29.92 "Hg10 mi
7:00 AM27 °FClear.17 mph74%29.89 "Hg10 mi
6:30 AM27 °FClear.20 mph80%29.89 "Hg10 mi
6:00 AM28 °FClear.20 mph74%29.89 "Hg10 mi
5:30 AM28 °FClear.17 mph69%29.89 "Hg10 mi
5:00 AM28 °FClear.17 mph69%29.89 "Hg10 mi
4:30 AM27 °FClear.17 mph74%29.86 "Hg10 mi
4:00 AM27 °FClear.17 mph74%29.86 "Hg10 mi
3:30 AM27 °FClear.20 mph74%29.86 "Hg10 mi
3:00 AM27 °FClear.17 mph69%29.86 "Hg10 mi
2:30 AM25 °FClear.13 mph74%29.86 "Hg10 mi
2:00 AM23 °FClear.13 mph74%29.86 "Hg10 mi
1:30 AM23 °FClear.13 mph74%29.86 "Hg10 mi
1:00 AM27 °FClear.15 mph69%29.86 "Hg10 mi
12:30 AM27 °FClear.17 mph74%29.86 "Hg10 mi
12:00 AM28 °FClear.20 mph69%29.86 "Hg10 mi
11:30 PM
Sun, Nov 29
28 °FClear.15 mph69%29.83 "Hg10 mi
11:00 PM27 °FLow level haze.17 mph74%29.83 "HgN/A
10:30 PM28 °FLow level haze.17 mph69%29.83 "HgN/A
10:00 PM30 °FPassing clouds.17 mph59%29.83 "HgN/A
9:30 PM30 °FLow level haze.17 mph59%29.80 "HgN/A
9:00 PM32 °FClear.13 mph64%29.77 "Hg10 mi
8:30 PM30 °FClear.8 mph93%29.77 "Hg10 mi
8:00 PM30 °FClear.13 mph93%29.77 "Hg10 mi
7:30 PM30 °FClear.10 mph100%29.77 "Hg10 mi
7:00 PM28 °FClear.6 mph93%29.74 "Hg6 mi
6:30 PM25 °FIce fog.1 mph93%29.74 "Hg3 mi
6:00 PM25 °FIce fog.3 mph93%29.74 "Hg4 mi
5:30 PM25 °FSnow flurries. Partly sunny.10 mph93%29.71 "Hg3 mi
4:30 PM23 °FCold.No wind93%29.65 "Hg1 mi
4:00 PM23 °FIce fog.No wind93%29.65 "Hg2 mi
3:30 PM23 °FIce fog.No wind93%29.62 "Hg3 mi
3:00 PM21 °FIce fog.No wind93%29.56 "Hg2 mi
1:30 PM21 °FIce fog.No wind93%29.59 "Hg1 mi
1:00 PM23 °FIce fog.No wind86%29.62 "Hg1 mi
12:00 PM21 °FCold.No wind93%29.68 "Hg1 mi
11:30 AM21 °FCold.No wind93%29.68 "Hg1 mi
11:00 AM19 °FPartly sunny.No wind93%29.71 "Hg1 mi
10:30 AM19 °FCold.No wind93%29.71 "Hg1 mi
10:00 AM19 °FCold.No wind86%29.74 "Hg1 mi
9:30 AM18 °FCold.No wind93%29.77 "Hg1 mi
9:00 AM18 °FPassing clouds.No wind93%29.77 "Hg1 mi
Weather by CustomWeather, © 2015

See weather overviewHow to use our weather pages